This is the latest recevied weather packets stored in our database for station/object KD4EED. If no packets are shown the sender has not sent any weather packets the latest 10 day(s).
| Time | Temp. | Humidity | Pressure | Rain* | Wind** | Luminosity | Snow |
|---|---|---|---|---|---|---|---|
| 1777434384 | 15° C | 73% | 1014.2 hPa | - | - | 0 W/m² | - |
| 1777434082 | 15° C | 72% | 1014.3 hPa | - | - | 0 W/m² | - |
| 1777433779 | 15° C | 72% | 1014.4 hPa | - | - | 0 W/m² | - |
| 1777433475 | 15.56° C | 71% | 1014.1 hPa | - | - | 0 W/m² | - |
| 1777433171 | 15.56° C | 71% | 1014.2 hPa | - | - | 0 W/m² | - |
| 1777432868 | 15.56° C | 70% | 1014 hPa | - | - | 0 W/m² | - |
| 1777432567 | 15.56° C | 70% | 1013.9 hPa | - | - | 0 W/m² | - |
| 1777432264 | 16.11° C | 69% | 1014.1 hPa | - | - | 0 W/m² | - |
| 1777431962 | 16.11° C | 69% | 1014 hPa | - | - | 0 W/m² | - |
| 1777431660 | 16.11° C | 68% | 1013.8 hPa | - | - | 0 W/m² | - |
| 1777431355 | 16.11° C | 71% | 1013.9 hPa | - | - | 0 W/m² | - |
| 1777431051 | 16.11° C | 68% | 1013.9 hPa | - | - | 0 W/m² | - |
| 1777430748 | 16.11° C | 68% | 1013.7 hPa | - | - | 0 W/m² | - |
| 1777430444 | 16.67° C | 68% | 1014 hPa | - | - | 1 W/m² | - |
| 1777430139 | 16.67° C | 67% | 1013.9 hPa | - | - | 2 W/m² | - |
| 1777429835 | 16.67° C | 67% | 1013.8 hPa | - | - | 4 W/m² | - |
| 1777429532 | 17.22° C | 68% | 1013.8 hPa | - | - | 6 W/m² | - |
| 1777429227 | 17.22° C | 68% | 1013.9 hPa | - | - | 8 W/m² | - |
| 1777428923 | 17.22° C | 67% | 1013.8 hPa | - | - | 11 W/m² | - |
| 1777428620 | 17.22° C | 66% | 1013.8 hPa | - | - | 13 W/m² | - |
| 1777428315 | 17.78° C | 65% | 1014 hPa | - | - | 15 W/m² | - |
| 1777428011 | 17.78° C | 63% | 1013.9 hPa | - | - | 18 W/m² | - |
| 1777427707 | 18.33° C | 62% | 1013.8 hPa | - | - | 20 W/m² | - |
| 1777427405 | 18.89° C | 60% | 1013.8 hPa | - | - | 22 W/m² | - |
| 1777427100 | 18.89° C | 59% | 1013.8 hPa | - | - | 24 W/m² | - |
* Rain since midnight (hover to see other rain measurements)
** Current wind speed in m/s (hover to see current wind gust speed)